This is the latest recevied weather packets stored in our database for station/object KQ4HEI. If no packets are shown the sender has not sent any weather packets the latest 10 day(s).
| Time | Temp. | Humidity | Pressure | Rain* | Wind** | Luminosity | Snow |
|---|---|---|---|---|---|---|---|
| 1777642892 | 20.56° C | 88% | 1011.5 hPa | 0 mm | - | - | - |
| 1777642292 | 20.56° C | 89% | 1011.4 hPa | 0 mm | - | - | - |
| 1777641692 | 20° C | 89% | 1011.7 hPa | 0 mm | - | - | - |
| 1777641092 | 20° C | 90% | 1011.7 hPa | 0 mm | - | - | - |
| 1777640492 | 20° C | 89% | 1011.6 hPa | 0 mm | - | - | - |
| 1777639892 | 20° C | 88% | 1011.4 hPa | 0 mm | - | - | - |
| 1777639292 | 20° C | 90% | 1011.1 hPa | 0 mm | - | - | - |
| 1777638692 | 19.44° C | 91% | 1011.2 hPa | 0 mm | - | - | - |
| 1777638094 | 19.44° C | 93% | 1011.5 hPa | 0 mm | - | - | - |
| 1777637492 | 18.89° C | 94% | 1011.4 hPa | 0 mm | - | - | - |
| 1777636892 | 18.89° C | 96% | 1011.3 hPa | 0 mm | - | - | - |
| 1777636292 | 18.33° C | 98% | 1011.1 hPa | 0 mm | - | - | - |
| 1777635693 | 17.78° C | 99% | 1010.6 hPa | 0 mm | - | - | - |
| 1777635092 | 17.78° C | 99% | 1010.2 hPa | 0 mm | - | - | - |
| 1777634493 | 17.78° C | 99% | 1010.4 hPa | 0 mm | - | - | - |
| 1777633892 | 17.78° C | 99% | 1010.6 hPa | 0 mm | - | - | - |
| 1777633292 | 17.78° C | 99% | 1010.4 hPa | 0 mm | - | - | - |
| 1777632692 | 17.78° C | 99% | 1010.2 hPa | 0 mm | - | - | - |
| 1777632092 | 17.78° C | 99% | 1010 hPa | 0 mm | - | - | - |
| 1777631492 | 17.78° C | 99% | 1010.1 hPa | 0 mm | - | - | - |
| 1777630892 | 17.78° C | 99% | 1010.1 hPa | 0 mm | - | - | - |
| 1777630292 | 17.78° C | 99% | 1010.2 hPa | 0 mm | - | - | - |
| 1777629692 | 18.33° C | 99% | 1010.2 hPa | 0 mm | - | - | - |
| 1777629093 | 18.33° C | 99% | 1010.1 hPa | 0 mm | - | - | - |
| 1777628494 | 18.33° C | 99% | 1010 hPa | 0 mm | - | - | - |
* Rain latest hour (hover to see other rain measurements)
** Current wind speed in m/s (hover to see current wind gust speed)